Date String (YYYY-MM-DD hh:mm:ss) UTC,Instrument flags,Ambient pressure (hPa),Sample flow (lpm),Bypass flow (lpm),Sample temperature (°C),Ambient temperature (°C),ASC tube jacket temperature (°C),LED temperature (°C),Box temperature (°C),Sample RH (%),Span deviation,Mass concentration (μg/m³),Mass concentration (μg/m³),Mass concentration (μg/m³)
DateTimeUTC,F1_M11,P_M11,Q1_M11,Q2_M11,T1_M11,T2_M11,T3_M11,T4_M11,T5_M11,U1_M11,ZSPAN_M11,X0_M11,X2_M11,X1_M11
2021-08-21 10:00:00,,0830.6,5.01,0.00,30.2,29.1,00.0,39.2,32.0,20.7,0002.3,0015.22,0011.44,0011.06
2021-08-21 10:01:00,,0830.6,4.99,0.00,30.2,29.2,00.0,39.3,32.0,20.7,0002.4,0015.48,0011.32,0010.94
2021-08-21 10:02:00,,0830.6,5.01,0.00,30.2,29.2,00.0,39.3,32.0,20.6,0002.3,0015.74,0011.22,0010.86
2021-08-21 10:03:00,,0830.6,4.99,0.00,30.2,29.2,00.0,39.3,32.0,20.5,0002.3,0015.62,0011.16,0010.80
2021-08-21 10:04:00,,0830.6,4.99,0.00,30.2,29.2,00.0,39.3,32.0,20.6,0002.2,0015.43,0011.10,0010.75
2021-08-21 10:05:00,,0830.6,5.01,0.00,30.2,29.2,00.0,39.3,32.0,20.7,0002.2,0015.40,0011.08,0010.71
2021-08-21 10:06:00,,0830.6,5.00,0.00,30.2,29.3,00.0,39.3,32.0,21.3,0002.2,0015.72,0011.17,0010.77
2021-08-21 10:07:00,,0830.6,4.99,0.00,30.2,29.3,00.0,39.3,32.0,20.8,0002.1,0016.18,0011.27,0010.85
2021-08-21 10:08:00,,0830.6,5.00,0.00,30.2,29.3,00.0,39.3,32.0,20.9,0002.0,0016.36,0011.39,0010.94
2021-08-21 10:09:00,,0830.6,5.00,0.00,30.2,29.3,00.0,39.3,32.0,20.8,0002.0,0016.64,0011.59,0011.11
2021-08-21 10:10:00,,0830.6,5.01,0.00,30.3,29.3,00.0,39.4,32.0,20.9,0002.2,0016.88,0011.78,0011.28
2021-08-21 10:11:00,,0830.6,4.99,0.00,30.3,29.3,00.0,39.4,32.1,21.3,0002.2,0016.99,0011.94,0011.43
2021-08-21 10:12:00,,0830.6,5.01,0.00,30.3,29.3,00.0,39.4,32.1,21.0,0002.1,0016.91,0012.06,0011.55
2021-08-21 10:13:00,,0830.6,5.00,0.00,30.3,29.3,00.0,39.4,32.1,20.6,0002.0,0016.44,0012.07,0011.57
2021-08-21 10:14:00,,0830.6,5.01,0.00,30.3,29.3,00.0,39.4,32.0,20.4,0002.1,0016.43,0012.06,0011.55
2021-08-21 10:15:00,,0830.6,5.00,0.00,30.3,29.3,00.0,39.4,32.0,20.3,0002.3,0016.46,0011.99,0011.50
2021-08-21 10:16:00,,0830.6,5.00,0.00,30.3,29.3,00.0,39.4,32.1,20.3,0002.4,0016.28,0011.85,0011.40
2021-08-21 10:17:00,,0830.6,5.00,0.00,30.3,29.4,00.0,39.4,32.1,20.3,0002.3,0015.93,0011.69,0011.27
2021-08-21 10:18:00,,0830.6,5.00,0.00,30.3,29.4,00.0,39.4,32.1,20.3,0002.4,0015.87,0011.52,0011.12
2021-08-21 10:19:00,,0830.6,5.00,0.00,30.3,29.4,00.0,39.4,32.1,20.5,0002.5,0015.65,0011.40,0011.01
2021-08-21 10:20:00,,0830.6,5.01,0.00,30.4,29.4,00.0,39.5,32.1,20.3,0002.5,0015.50,0011.29,0010.94
2021-08-21 10:21:00,,0830.7,4.99,0.00,30.4,29.4,00.0,39.5,32.1,20.5,0002.4,0015.47,0011.16,0010.84
2021-08-21 10:22:00,,0830.6,5.01,0.00,30.4,29.4,00.0,39.5,32.1,20.3,0002.3,0015.42,0010.98,0010.70
2021-08-21 10:23:00,,0830.6,5.01,0.00,30.4,29.4,00.0,39.5,32.1,20.2,0002.4,0015.10,0010.78,0010.52
2021-08-21 10:24:00,,0830.6,5.00,0.00,30.4,29.4,00.0,39.5,32.1,20.3,0002.5,0015.01,0010.71,0010.44
2021-08-21 10:25:00,,0830.6,4.99,0.00,30.4,29.4,00.0,39.5,32.1,20.8,0002.6,0015.00,0010.72,0010.45
2021-08-21 10:26:00,,0830.6,5.00,0.00,30.4,29.4,00.0,39.5,32.1,20.3,0002.5,0014.90,0010.77,0010.50
2021-08-21 10:27:00,,0830.6,5.00,0.00,30.4,29.5,00.0,39.5,32.2,20.4,0002.5,0015.04,0010.82,0010.54
2021-08-21 10:28:00,,0830.6,4.99,0.00,30.4,29.5,00.0,39.5,32.2,20.2,0002.3,0015.05,0010.83,0010.55
2021-08-21 10:29:00,,0830.6,5.01,0.00,30.4,29.5,00.0,39.5,32.2,20.1,0002.2,0014.61,0010.84,0010.55
2021-08-21 10:30:00,,0830.6,4.99,0.00,30.4,29.5,00.0,39.6,32.1,20.1,0002.2,0014.56,0010.77,0010.50
2021-08-21 10:31:00,,0830.6,5.01,0.00,30.4,29.6,00.0,39.6,32.2,20.1,0002.1,0014.52,0010.73,0010.45
2021-08-21 10:32:00,,0830.6,5.00,0.00,30.4,29.6,00.0,39.6,32.2,20.0,0002.0,0014.29,0010.65,0010.37
2021-08-21 10:33:00,,0830.6,5.01,0.00,30.4,29.6,00.0,39.6,32.2,20.2,0002.1,0014.03,0010.60,0010.32
2021-08-21 10:34:00,,0830.6,4.99,0.00,30.5,29.6,00.0,39.6,32.2,20.4,0002.1,0014.14,0010.58,0010.29
2021-08-21 10:35:00,,0830.6,5.00,0.00,30.5,29.6,00.0,39.6,32.2,20.5,0002.1,0014.20,0010.53,0010.24
2021-08-21 10:36:00,,0830.6,4.99,0.00,30.5,29.6,00.0,39.6,32.2,20.2,0002.0,0014.11,0010.40,0010.11
2021-08-21 10:37:00,,0830.6,4.99,0.00,30.5,29.6,00.0,39.6,32.3,19.7,0001.9,0013.90,0010.16,0009.85
2021-08-21 10:38:00,,0830.5,5.02,0.00,30.5,29.6,00.0,39.6,32.3,19.6,0001.9,0013.54,0009.89,0009.60
2021-08-21 10:39:00,,0830.5,5.00,0.00,30.5,29.6,00.0,39.6,32.3,19.6,0002.2,0013.24,0009.64,0009.37
2021-08-21 10:40:00,,0830.5,5.00,0.00,30.5,29.6,00.0,39.7,32.3,19.7,0002.2,0012.87,0009.40,0009.18
2021-08-21 10:41:00,,0830.5,4.99,0.00,30.5,29.7,00.0,39.7,32.3,19.7,0002.2,0012.70,0009.25,0009.01
2021-08-21 10:42:00,,0830.5,5.01,0.00,30.5,29.7,00.0,39.7,32.3,19.8,0002.3,0012.54,0009.10,0008.84
2021-08-21 10:43:00,,0830.5,4.98,0.00,30.5,29.7,00.0,39.7,32.3,19.9,0002.3,0012.39,0008.96,0008.69
2021-08-21 10:44:00,,0830.5,5.01,0.00,30.5,29.7,00.0,39.7,32.3,19.9,0002.2,0012.24,0008.85,0008.58
2021-08-21 10:45:00,,0830.5,4.98,0.00,30.5,29.7,00.0,39.7,32.3,20.0,0002.2,0012.02,0008.72,0008.44
2021-08-21 10:46:00,,0830.5,5.01,0.00,30.5,29.7,00.0,39.7,32.3,20.1,0002.4,0011.75,0008.60,0008.31
2021-08-21 10:47:00,,0830.5,4.98,0.00,30.5,29.7,00.0,39.7,32.3,19.8,0002.5,0011.58,0008.48,0008.19
2021-08-21 10:48:00,,0830.5,4.99,0.00,30.5,29.7,00.0,39.7,32.3,19.7,0002.3,0011.64,0008.51,0008.21
2021-08-21 10:49:00,,0830.5,5.01,0.00,30.5,29.7,00.0,39.7,32.3,19.9,0002.2,0011.67,0008.56,0008.26
2021-08-21 10:50:00,,0830.4,5.00,0.00,30.5,28.6,00.0,39.7,32.0,19.7,0002.1,0011.65,0008.57,0008.28
2021-08-21 10:51:00,,0830.4,5.00,0.00,30.3,26.8,00.0,39.6,31.5,19.8,0002.1,0011.72,0008.63,0008.32
2021-08-21 10:52:00,,0830.4,5.01,0.00,30.2,26.6,00.0,39.6,31.5,20.0,0001.9,0011.77,0008.64,0008.34
2021-08-21 10:53:00,,0830.4,5.00,0.00,30.1,27.0,00.0,39.5,31.5,20.2,0002.0,0012.15,0008.66,0008.37
2021-08-21 10:54:00,,0830.4,5.00,0.00,30.0,27.4,00.0,39.5,31.5,20.3,0001.8,0012.23,0008.67,0008.39
2021-08-21 10:55:00,,0830.5,5.00,0.00,30.0,27.7,00.0,39.4,31.6,20.5,0001.9,0012.36,0008.66,0008.41
2021-08-21 10:56:00,,0830.5,4.99,0.00,30.0,28.0,00.0,39.4,31.6,20.7,0001.7,0012.42,0008.66,0008.41
2021-08-21 10:57:00,,0830.4,5.01,0.00,30.0,28.2,00.0,39.4,31.7,20.7,0001.7,0012.41,0008.65,0008.41
2021-08-21 10:58:00,,0830.5,4.99,0.00,30.0,28.4,00.0,39.4,31.7,20.6,0001.7,0012.44,0008.67,0008.44
2021-08-21 10:59:00,,0830.4,5.01,0.00,30.0,28.6,00.0,39.3,31.8,20.9,0001.6,0012.41,0008.70,0008.45
